Time,TemperatureF,DewpointF,PressureIn,WindDirection,WindDirectionDegrees,WindSpeedMPH,WindSpeedGustMPH,Humidity,HourlyPrecipIn,Conditions,Clouds,dailyrainin,SoftwareType,DateUTC
2013-07-31 00:02:00,41.8,39.0,30.16,SE,129,1.0,2.0,88,0.00,,,0.00,weatherlink.com 1.10,2013-07-31 06:02:00,
2013-07-31 00:18:00,41.7,38.0,30.16,SE,130,0.0,1.0,88,0.00,,,0.00,weatherlink.com 1.10,2013-07-31 06:18:00,
2013-07-31 00:33:00,41.6,39.0,30.16,SE,131,0.0,0.0,89,0.00,,,0.00,weatherlink.com 1.10,2013-07-31 06:33:00,
2013-07-31 00:48:00,41.5,38.0,30.16,SE,131,0.0,1.0,88,0.00,,,0.00,weatherlink.com 1.10,2013-07-31 06:48:00,
2013-07-31 01:03:00,41.1,38.0,30.16,SE,131,0.0,1.0,88,0.00,,,0.00,weatherlink.com 1.10,2013-07-31 07:03:00,
2013-07-31 01:18:00,40.9,38.0,30.16,SE,129,0.0,1.0,89,0.00,,,0.00,weatherlink.com 1.10,2013-07-31 07:18:00,
2013-07-31 01:33:00,40.9,38.0,30.16,SE,125,1.0,1.0,89,0.00,,,0.00,weatherlink.com 1.10,2013-07-31 07:33:00,
2013-07-31 01:48:00,40.7,38.0,30.16,SE,126,1.0,1.0,89,0.00,,,0.00,weatherlink.com 1.10,2013-07-31 07:48:00,
2013-07-31 02:03:00,40.7,38.0,30.16,SE,126,0.0,1.0,89,0.00,,,0.00,weatherlink.com 1.10,2013-07-31 08:03:00,
2013-07-31 02:18:00,40.4,38.0,30.16,SE,126,0.0,1.0,89,0.00,,,0.00,weatherlink.com 1.10,2013-07-31 08:18:00,
2013-07-31 02:33:00,40.1,38.0,30.16,SE,127,0.0,2.0,90,0.00,,,0.00,weatherlink.com 1.10,2013-07-31 08:33:00,
2013-07-31 02:48:00,39.8,37.0,30.16,SE,127,0.0,1.0,89,0.00,,,0.00,weatherlink.com 1.10,2013-07-31 08:48:00,
2013-07-31 03:03:00,39.7,37.0,30.16,SE,131,0.0,1.0,89,0.00,,,0.00,weatherlink.com 1.10,2013-07-31 09:03:00,
2013-07-31 03:18:00,39.6,37.0,30.16,SE,134,1.0,1.0,89,0.00,,,0.00,weatherlink.com 1.10,2013-07-31 09:18:00,
2013-07-31 03:33:00,39.6,37.0,30.15,SE,124,1.0,2.0,89,0.00,,,0.00,weatherlink.com 1.10,2013-07-31 09:33:00,
2013-07-31 03:48:00,39.7,37.0,30.15,SSE,150,0.0,1.0,88,0.00,,,0.00,weatherlink.com 1.10,2013-07-31 09:48:00,
2013-07-31 04:03:00,39.4,37.0,30.15,SE,127,0.0,2.0,89,0.00,,,0.00,weatherlink.com 1.10,2013-07-31 10:03:00,
2013-07-31 04:18:00,39.1,36.0,30.15,SE,124,1.0,2.0,88,0.00,,,0.00,weatherlink.com 1.10,2013-07-31 10:18:00,
2013-07-31 04:34:00,39.1,36.0,30.15,SE,136,1.0,2.0,89,0.00,,,0.00,weatherlink.com 1.10,2013-07-31 10:34:00,
2013-07-31 04:48:00,39.3,36.0,30.15,SE,124,0.0,2.0,88,0.00,,,0.00,weatherlink.com 1.10,2013-07-31 10:48:00,
2013-07-31 05:03:00,39.5,36.0,30.16,SE,129,0.0,2.0,88,0.00,,,0.00,weatherlink.com 1.10,2013-07-31 11:03:00,
2013-07-31 05:18:00,39.1,36.0,30.16,SE,127,1.0,3.0,88,0.00,,,0.00,weatherlink.com 1.10,2013-07-31 11:18:00,
2013-07-31 05:33:00,39.0,36.0,30.16,SE,128,1.0,2.0,88,0.00,,,0.00,weatherlink.com 1.10,2013-07-31 11:33:00,
2013-07-31 05:48:00,38.9,36.0,30.17,SE,133,1.0,1.0,88,0.00,,,0.00,weatherlink.com 1.10,2013-07-31 11:48:00,
2013-07-31 06:03:00,38.9,36.0,30.17,ESE,120,2.0,2.0,88,0.00,,,0.00,weatherlink.com 1.10,2013-07-31 12:03:00,
2013-07-31 06:18:00,39.0,36.0,30.18,SE,129,0.0,2.0,89,0.00,,,0.00,weatherlink.com 1.10,2013-07-31 12:18:00,
2013-07-31 06:33:00,39.4,36.0,30.18,SE,125,0.0,2.0,87,0.00,,,0.00,weatherlink.com 1.10,2013-07-31 12:33:00,
2013-07-31 06:48:00,39.2,36.0,30.18,ESE,123,1.0,2.0,88,0.00,,,0.00,weatherlink.com 1.10,2013-07-31 12:48:00,
2013-07-31 07:03:00,39.4,36.0,30.18,ESE,123,1.0,2.0,88,0.00,,,0.00,weatherlink.com 1.10,2013-07-31 13:03:00,
2013-07-31 07:18:00,39.3,37.0,30.18,SE,136,1.0,1.0,90,0.00,,,0.00,weatherlink.com 1.10,2013-07-31 13:18:00,
2013-07-31 07:33:00,40.0,37.0,30.18,SE,136,1.0,1.0,89,0.00,,,0.00,weatherlink.com 1.10,2013-07-31 13:33:00,
2013-07-31 07:48:00,40.4,38.0,30.18,SE,137,0.0,0.0,90,0.00,,,0.00,weatherlink.com 1.10,2013-07-31 13:48:00,
2013-07-31 08:03:00,41.1,38.0,30.18,SE,139,0.0,0.0,89,0.00,,,0.00,weatherlink.com 1.10,2013-07-31 14:03:00,
2013-07-31 08:18:00,42.8,39.0,30.18,SE,135,1.0,1.0,86,0.00,,,0.00,weatherlink.com 1.10,2013-07-31 14:18:00,
2013-07-31 08:33:00,44.5,39.0,30.19,SE,135,1.0,1.0,82,0.00,,,0.00,weatherlink.com 1.10,2013-07-31 14:33:00,
2013-07-31 08:49:00,46.3,40.0,30.19,SE,131,1.0,1.0,80,0.00,,,0.00,weatherlink.com 1.10,2013-07-31 14:49:00,
2013-07-31 09:03:00,48.9,41.0,30.18,SE,131,0.0,1.0,75,0.00,,,0.00,weatherlink.com 1.10,2013-07-31 15:03:00,
2013-07-31 09:19:00,53.3,40.0,30.18,West,277,1.0,2.0,61,0.00,,,0.00,weatherlink.com 1.10,2013-07-31 15:19:00,
2013-07-31 09:34:00,55.8,40.0,30.17,WSW,251,0.0,3.0,56,0.00,,,0.00,weatherlink.com 1.10,2013-07-31 15:34:00,
2013-07-31 09:49:00,57.9,36.0,30.17,West,270,3.0,4.0,45,0.00,,,0.00,weatherlink.com 1.10,2013-07-31 15:49:00,
2013-07-31 10:04:00,60.0,37.0,30.17,SW,215,0.0,2.0,42,0.00,,,0.00,weatherlink.com 1.10,2013-07-31 16:04:00,
2013-07-31 10:19:00,59.6,37.0,30.17,WSW,250,0.0,3.0,43,0.00,,,0.00,weatherlink.com 1.10,2013-07-31 16:19:00,
2013-07-31 10:34:00,58.8,36.0,30.16,West,260,0.0,3.0,43,0.00,,,0.00,weatherlink.com 1.10,2013-07-31 16:34:00,
2013-07-31 10:49:00,60.4,38.0,30.16,WSW,254,0.0,2.0,43,0.00,,,0.00,weatherlink.com 1.10,2013-07-31 16:49:00,
2013-07-31 11:04:00,62.7,36.0,30.15,West,277,0.0,4.0,37,0.00,,,0.00,weatherlink.com 1.10,2013-07-31 17:04:00,
2013-07-31 11:19:00,63.9,33.0,30.15,WNW,284,2.0,5.0,31,0.00,,,0.00,weatherlink.com 1.10,2013-07-31 17:19:00,
2013-07-31 11:34:00,64.5,33.0,30.14,NW,305,0.0,6.0,31,0.00,,,0.00,weatherlink.com 1.10,2013-07-31 17:34:00,
2013-07-31 11:49:00,64.8,33.0,30.14,SW,234,0.0,5.0,30,0.00,,,0.00,weatherlink.com 1.10,2013-07-31 17:49:00,
2013-07-31 12:04:00,63.7,35.0,30.14,SW,235,0.0,2.0,34,0.00,,,0.00,weatherlink.com 1.10,2013-07-31 18:04:00,
2013-07-31 12:19:00,61.7,37.0,30.13,West,264,0.0,4.0,40,0.00,,,0.00,weatherlink.com 1.10,2013-07-31 18:19:00,
2013-07-31 12:34:00,61.1,37.0,30.12,WSW,245,2.0,5.0,41,0.00,,,0.00,weatherlink.com 1.10,2013-07-31 18:34:00,
2013-07-31 12:49:00,62.4,36.0,30.11,WNW,296,4.0,7.0,38,0.00,,,0.00,weatherlink.com 1.10,2013-07-31 18:49:00,
2013-07-31 13:05:00,64.1,39.0,30.11,SSW,196,1.0,3.0,40,0.00,,,0.00,weatherlink.com 1.10,2013-07-31 19:05:00,
2013-07-31 13:20:00,65.6,39.0,30.10,West,265,1.0,3.0,38,0.00,,,0.00,weatherlink.com 1.10,2013-07-31 19:20:00,
2013-07-31 13:35:00,63.7,37.0,30.09,West,275,0.0,6.0,38,0.00,,,0.00,weatherlink.com 1.10,2013-07-31 19:35:00,
2013-07-31 13:50:00,62.7,38.0,30.09,West,274,0.0,5.0,40,0.00,,,0.00,weatherlink.com 1.10,2013-07-31 19:50:00,
2013-07-31 14:05:00,62.3,38.0,30.09,SSW,198,0.0,4.0,40,0.00,,,0.00,weatherlink.com 1.10,2013-07-31 20:05:00,
2013-07-31 14:20:00,63.8,39.0,30.08,WNW,283,3.0,5.0,41,0.00,,,0.00,weatherlink.com 1.10,2013-07-31 20:20:00,
2013-07-31 14:35:00,64.2,37.0,30.07,West,281,0.0,4.0,36,0.00,,,0.00,weatherlink.com 1.10,2013-07-31 20:35:00,
2013-07-31 14:50:00,63.8,38.0,30.07,SSE,149,2.0,2.0,39,0.00,,,0.00,weatherlink.com 1.10,2013-07-31 20:50:00,
2013-07-31 15:05:00,66.8,38.0,30.05,SSW,198,0.0,2.0,35,0.00,,,0.00,weatherlink.com 1.10,2013-07-31 21:05:00,
2013-07-31 15:20:00,65.6,37.0,30.05,ESE,114,0.0,1.0,35,0.00,,,0.00,weatherlink.com 1.10,2013-07-31 21:20:00,
2013-07-31 15:35:00,65.7,36.0,30.05,SW,214,0.0,3.0,34,0.00,,,0.00,weatherlink.com 1.10,2013-07-31 21:35:00,
2013-07-31 15:50:00,65.6,34.0,30.04,SSW,198,0.0,2.0,31,0.00,,,0.00,weatherlink.com 1.10,2013-07-31 21:50:00,
2013-07-31 16:05:00,66.6,35.0,30.04,SSE,161,1.0,3.0,31,0.00,,,0.00,weatherlink.com 1.10,2013-07-31 22:05:00,
2013-07-31 16:20:00,68.8,32.0,30.04,West,273,1.0,6.0,26,0.00,,,0.00,weatherlink.com 1.10,2013-07-31 22:20:00,
2013-07-31 16:35:00,69.2,37.0,30.03,WNW,297,0.0,7.0,31,0.00,,,0.00,weatherlink.com 1.10,2013-07-31 22:35:00,
2013-07-31 16:50:00,68.5,36.0,30.03,West,280,0.0,7.0,30,0.00,,,0.00,weatherlink.com 1.10,2013-07-31 22:50:00,
2013-07-31 17:05:00,68.5,37.0,30.02,WSW,243,0.0,7.0,31,0.00,,,0.00,weatherlink.com 1.10,2013-07-31 23:05:00,
2013-07-31 17:20:00,69.2,36.0,30.02,WNW,297,3.0,7.0,30,0.00,,,0.00,weatherlink.com 1.10,2013-07-31 23:20:00,
2013-07-31 17:35:00,69.0,34.0,30.01,West,272,0.0,5.0,28,0.00,,,0.00,weatherlink.com 1.10,2013-07-31 23:35:00,
2013-07-31 17:50:00,69.3,36.0,30.01,NW,311,0.0,3.0,30,0.00,,,0.00,weatherlink.com 1.10,2013-07-31 23:50:00,
2013-07-31 18:05:00,69.4,34.0,30.00,WSW,245,1.0,5.0,27,0.00,,,0.00,weatherlink.com 1.10,2013-08-01 00:05:00,
2013-07-31 18:20:00,68.5,36.0,30.00,WNW,284,1.0,2.0,30,0.00,,,0.00,weatherlink.com 1.10,2013-08-01 00:20:00,
2013-07-31 18:35:00,65.3,38.0,30.00,West,276,0.0,5.0,36,0.00,,,0.00,weatherlink.com 1.10,2013-08-01 00:35:00,
2013-07-31 18:50:00,65.1,38.0,30.00,West,281,1.0,2.0,37,0.00,,,0.00,weatherlink.com 1.10,2013-08-01 00:50:00,
2013-07-31 19:05:00,64.0,41.0,30.00,West,262,0.0,1.0,44,0.00,,,0.00,weatherlink.com 1.10,2013-08-01 01:05:00,
2013-07-31 19:20:00,62.5,38.0,30.00,West,262,1.0,1.0,41,0.00,,,0.00,weatherlink.com 1.10,2013-08-01 01:20:00,
2013-07-31 19:35:00,61.3,40.0,30.00,West,267,0.0,2.0,45,0.00,,,0.00,weatherlink.com 1.10,2013-08-01 01:35:00,
2013-07-31 19:50:00,60.1,38.0,30.01,WNW,284,0.0,3.0,44,0.00,,,0.00,weatherlink.com 1.10,2013-08-01 01:50:00,
2013-07-31 20:05:00,59.3,40.0,30.01,WSW,252,0.0,2.0,49,0.00,,,0.00,weatherlink.com 1.10,2013-08-01 02:05:00,
2013-07-31 20:20:00,58.0,41.0,30.01,WSW,252,0.0,0.0,54,0.00,,,0.00,weatherlink.com 1.10,2013-08-01 02:20:00,
2013-07-31 20:35:00,56.0,41.0,30.02,WSW,251,0.0,0.0,58,0.00,,,0.00,weatherlink.com 1.10,2013-08-01 02:35:00,
2013-07-31 20:50:00,54.7,40.0,30.02,WSW,252,0.0,0.0,59,0.00,,,0.00,weatherlink.com 1.10,2013-08-01 02:50:00,
2013-07-31 21:05:00,53.4,40.0,30.02,WSW,252,0.0,0.0,62,0.00,,,0.00,weatherlink.com 1.10,2013-08-01 03:05:00,
2013-07-31 21:20:00,52.4,41.0,30.02,WSW,245,0.0,1.0,65,0.00,,,0.00,weatherlink.com 1.10,2013-08-01 03:20:00,
2013-07-31 21:35:00,52.2,40.0,30.02,SE,143,1.0,1.0,64,0.00,,,0.00,weatherlink.com 1.10,2013-08-01 03:35:00,
2013-07-31 21:50:00,51.5,41.0,30.02,SE,144,0.0,1.0,67,0.00,,,0.00,weatherlink.com 1.10,2013-08-01 03:50:00,
2013-07-31 22:05:00,50.8,41.0,30.01,SE,144,0.0,1.0,69,0.00,,,0.00,weatherlink.com 1.10,2013-08-01 04:05:00,
2013-07-31 22:20:00,50.2,40.0,30.01,SE,144,0.0,1.0,67,0.00,,,0.00,weatherlink.com 1.10,2013-08-01 04:20:00,
2013-07-31 22:35:00,49.9,41.0,30.01,SE,144,0.0,1.0,71,0.00,,,0.00,weatherlink.com 1.10,2013-08-01 04:35:00,
2013-07-31 22:50:00,50.1,39.0,30.01,SSE,150,0.0,0.0,67,0.00,,,0.00,weatherlink.com 1.10,2013-08-01 04:50:00,
2013-07-31 23:05:00,50.4,40.0,30.01,SSE,150,0.0,1.0,68,0.00,,,0.00,weatherlink.com 1.10,2013-08-01 05:05:00,
2013-07-31 23:21:00,50.6,40.0,30.01,SSE,149,0.0,1.0,68,0.00,,,0.00,weatherlink.com 1.10,2013-08-01 05:21:00,
2013-07-31 23:36:00,50.4,40.0,30.00,SSE,150,0.0,0.0,68,0.00,,,0.00,weatherlink.com 1.10,2013-08-01 05:36:00,
2013-07-31 23:51:00,49.4,40.0,30.00,SSE,150,0.0,0.0,71,0.00,,,0.00,weatherlink.com 1.10,2013-08-01 05:51:00,